KVBT

Details ICAO KVBT
Name BENTONVILLE MUNI LOUISE M THADEN FLD
Region United States
Timezone America/Chicago (UTC-5.0)
Plans Departing 9
Arriving 2
Stats Elevation 1,296 ft / 395 m (AMSL)
Location 36.345728° -94.219332°
Runways 1
Magnetic Variation 1.488° E
Sunrise 2018-05-21 11:07:25 UTC / 2018-05-21 06:07:25 Local
Sunset 2018-05-22 01:22:25 UTC / 2018-05-21 20:22:25 Local
Advertisement - Login to hide

Runways

ID Width Length Bearing (true) Bearing (mag) Surface Threshold Offset Overrun Length
18 65 ft / 20 m 4,091 ft / 1,247 m 180.42° 178.93° Asphalt 227 ft / 69 m 0 ft / 0 m
36 65 ft / 20 m 4,091 ft / 1,247 m 0.42° 358.93° Asphalt 0 ft / 0 m 0 ft / 0 m

Map

Weather


0- 5 10 15 20 25 30 35+ Temperature / ° C

Clouds and Precipitation
Forecast for 2018-05-21 18:00 UTC. Updated 21 minutes ago

Ground ~20,000 ft ~40,000 ft Winds

METAR

KVBT 211537Z AUTO 22005KT 10SM BKN010 OVC015 22/19 A3013 RMK AO2 CIG 008V013

TAF

Not found

Frequencies

Recorded 134.97 MHz AWOS 3
Clearance 121.05 MHz RAZORBACK CLNC DEL
Unicom 122.80 MHz CTAF/UNICOM
Approach 121.00 MHz RAZORBACK APP/DEP
Warning: Do not use this data for real-world aviation or navigation. No guarantee of current accuracy is given.